Weather History for LIBA - April, 2013

Change the Weather History Date:

Wednesday, April 10, 2013

  Actual Average Record
Temperature  
Mean Temperature 60 °F -  
Max Temperature 72 °F 69 °F 73 °F (2007)
Min Temperature 48 °F 47 °F 30 °F (1997)
Degree Days  
Heating Degree Days 5    
Growing Degree Days 10 (Base 50)    
Moisture  
Dew Point 52 °F    
Average Humidity 72    
Maximum Humidity 94    
Minimum Humidity 43    
Precipitation  
Precipitation 0.00 in 0.05 in - ()
Sea Level Pressure  
Sea Level Pressure 29.89 in    
Wind  
Wind Speed 5 mph ()    
Max Wind Speed 10 mph    
Max Gust Speed 22 mph    
Visibility 7.5 miles    
Events      
Averages and records for this station are not official NWS values.
T = Trace of Precipitation, MM = Missing Value Source: Averaged Metar Reports

Daily Weather History Graph

Daily Weather History Graph

Search for Another Location

Airport or City:

Trip Planner

Search our weather history database for the weather conditions in past years. The results will help you decide how hot, cold, wet, or windy it might be!

Date:

Astronomy

Apr. 10, 2013 Rise Set
Actual Time 6:25 AM CEST 7:32 PM CEST
Civil Twilight 5:56 AM CEST 8:00 PM CEST
Nautical Twilight 5:23 AM CEST 8:34 PM CEST
Astronomical Twilight 4:47 AM CEST 9:10 PM CEST
Moon 6:11 AM CEST (4/10) 7:51 PM CEST (4/10)
Length of Visible Light 14h 03m
Length of Day
13h 06m
New Moon, 0% of the Moon is Illuminated
Apr 10
New Moon
Apr 18
First Quarter
Apr 25
Full
May 2
Last Quarter
May 10
New

Hourly Weather History & Observations

Time (CEST) Temp. Dew Point Humidity Pressure Visibility Wind Dir Wind Speed Gust Speed Precip Events Conditions
6:55 AM 48.2 °F 46.4 °F 93% 29.86 in 6.2 mi West 4.6 mph - N/A   Partly Cloudy
7:55 AM 55.4 °F 50.0 °F 82% 29.89 in 6.2 mi Calm Calm - N/A   Partly Cloudy
8:00 AM 55 °F 50 °F 78% 29.89 in 12 mi Calm Calm - -   Scattered Clouds
8:55 AM 59.0 °F 53.6 °F 82% 29.89 in 6.2 mi SSW 9.2 mph - N/A   Partly Cloudy
9:55 AM 62.6 °F 53.6 °F 72% 29.89 in 6.2 mi WSW 9.2 mph - N/A   Partly Cloudy
10:55 AM 64.4 °F 53.6 °F 68% 29.89 in 6.2 mi WSW 10.4 mph - N/A   Partly Cloudy
11:00 AM 64 °F 53 °F 59% 29.89 in 12 mi WSW 10.4 mph - -   Scattered Clouds
12:55 PM 69.8 °F 51.8 °F 53% 29.86 in 6.2 mi WSW 9.2 mph - N/A   Partly Cloudy
1:55 PM 69.8 °F 51.8 °F 53% 29.86 in 6.2 mi SW 10.4 mph - N/A   Scattered Clouds
2:00 PM 70 °F 53 °F 43% 29.87 in 12 mi SW 10.4 mph - -   Partly Cloudy
2:55 PM 69.8 °F 51.8 °F 53% 29.86 in 6.2 mi SW 10.4 mph 21.9 mph N/A   Scattered Clouds
3:55 PM 71.6 °F 50.0 °F 46% 29.86 in 6.2 mi WSW 9.2 mph - N/A   Scattered Clouds
4:55 PM 68.0 °F 53.6 °F 60% 29.86 in 6.2 mi NE 3.5 mph - N/A   Scattered Clouds
5:00 PM 68 °F 53 °F 48% 29.87 in 12 mi NE 3.5 mph - -   Partly Cloudy
5:55 PM 62.6 °F 53.6 °F 72% 29.86 in 6.2 mi East 8.1 mph - N/A   Scattered Clouds
6:55 PM 59.0 °F 55.4 °F 88% 29.89 in 6.2 mi ENE 4.6 mph - N/A   Scattered Clouds
7:55 PM 57.2 °F 55.4 °F 94% 29.89 in 6.2 mi ENE 3.5 mph - N/A   Partly Cloudy
8:00 PM 57 °F 55 °F 90% 29.90 in 9 mi ENE 3.5 mph - -   Scattered Clouds
8:55 PM 55.4 °F 51.8 °F 88% 29.92 in 6.2 mi Calm Calm - N/A   Partly Cloudy
9:55 PM 55.4 °F 50.0 °F 82% 29.92 in 6.2 mi South 2.3 mph - N/A   Partly Cloudy
10:55 PM 53.6 °F 50.0 °F 88% 29.92 in 6.2 mi SW 3.5 mph - N/A   Partly Cloudy
11:00 PM 54 °F 50 °F 81% 29.95 in 9 mi SW 3.5 mph - -   Scattered Clouds